Regional Weather Roundup
Issued by NWS

Home | Current Version | Previous Version | Text Only | Print | Product List | Glossary Off
Versions: 1 2 3 4 5 6 7 8 9 10 11 12 13 14 15 16 17 18 19 20 21 22 23 24 25 26 27 28 29 30 31 32 33 34 35 36 37 38 39 40 41 42 43 44 45 46 47 48 49 50

315
ASUS43 KMKX 230311
RWRWI

WISCONSIN REGIONAL WEATHER ROUNDUP
NATIONAL WEATHER SERVICE MILWAUKEE/SULLIVAN WI
1000 PM CDT FRI SEP 22 2017

NOTE: "FAIR" INDICATES FEW OR NO CLOUDS BELOW 12,000 FEET WITH NO
SIGNIFICANT WEATHER AND/OR OBSTRUCTIONS TO VISIBILITY.

WIZ001-002-006>008-014>016-023>028-230400-
NORTHWEST WISCONSIN

CITY           SKY/WX    TMP DP  RH WIND       PRES   REMARKS
SUPERIOR ARPT  PTCLDY    62  61  99 NE5       29.80F
ASHLAND        CLEAR     81  68  64 S10G20    29.81F HX  84
HAYWARD        CLEAR     78  68  71 S9        29.86S HX  80
SIREN          PTCLDY    82  64  53 S14G22    29.84R HX  83
CUMBERLAND     CLEAR     73  63  68 S8        29.88R
RICE LAKE      CLEAR     78  66  67 SE8       29.89R
CHETEK         CLEAR     78  68  70 SE8       29.88R HX  80
LADYSMITH      CLEAR     78  66  67 SE7       29.92F HX  80
EAU CLAIRE     CLEAR     80  66  62 S10       29.88F HX  82
MENOMONIE      CLEAR     76  65  69 SE7       29.88S
NEW RICHMOND   PTCLDY    81  63  54 S10G17    29.86R HX  82
OSCEOLA        CLOUDY    83  65  55 S16       29.87R HX  85
$$

WIZ003>005-009-010-017-018-230400-
NORTH CENTRAL WISCONSIN

CITY           SKY/WX    TMP DP  RH WIND       PRES   REMARKS
MANITOWISH WTR CLEAR     72  72 100 S7        29.94S
ARBOR VITAE    CLEAR     72  68  87 S7        29.96S
WOODRUFF       CLEAR     72  68  87 S7        29.96S
RHINELANDER    CLEAR     70  67  90 S5        29.99S
EAGLE RIVER    CLEAR     68  66  94 S6        29.97S
LAND O LAKES   CLEAR     70  66  85 S9        29.98F
PHILLIPS       CLOUDY    75  69  80 S9        29.93F
TOMAHAWK       CLEAR     68  65  90 CALM      29.97F
MEDFORD        CLEAR     71  66  82 S8        29.97S
MERRILL        CLEAR     69  69  98 SE5       29.98S
$$

WIZ029-030-035-036-043>047-230400-
CENTRAL WISCONSIN

CITY           SKY/WX    TMP DP  RH WIND       PRES   REMARKS
WAUSAU         CLEAR     76  66  71 S10       29.97R
MOSINEE        CLEAR     72  66  83 S7        30.00R
MARSHFIELD     CLEAR     74  64  71 S9        29.97F
STEVENS POINT  CLEAR     76  64  67 S6        30.00R
WAUPACA        CLEAR     75  67  74 S5        30.00R
WAUTOMA        CLEAR     73  68  84 S6        30.00S
WISC RAPIDS    CLEAR     78  66  66 S8        29.99S HX  80
CAMP DOUGLAS   CLEAR     76  67  71 S7        29.97S
$$

WIZ011>013-019>022-031-037>040-048>050-230400-
NORTHEAST WISCONSIN

CITY           SKY/WX    TMP DP  RH WIND       PRES   REMARKS
ANTIGO         CLEAR     67  65  96 S7        30.02R
SHAWANO        CLEAR     68  65  91 CALM      29.98S
OCONTO         CLEAR     71  67  86 S5        29.98S
STURGEON BAY   CLEAR     71  67  87 S13       30.00S
GREEN BAY      CLEAR     73  69  87 S8        29.99R
MANITOWOC      CLEAR     72  67  84 S10       30.01F
APPLETON       PTCLDY    73  66  78 S7        29.99S
CLINTONVILLE   CLEAR     72  64  78 S5        29.99R
OSHKOSH        CLEAR     73  69  87 S5        30.00S
$$

WIZ032>034-041-042-053>061-230400-
SOUTHWEST WISCONSIN

CITY           SKY/WX    TMP DP  RH WIND       PRES   REMARKS
LA CROSSE      CLEAR     82  68  62 S9        29.92S HX  85
SPARTA         CLEAR     81  67  61 S10       29.96S HX  83
VIROQUA          N/A     78  67  70 S9        30.00R HX  80
BOSCOBEL       CLEAR     82  66  58 S7        29.97S HX  84
PRAIRIE DU CHI CLEAR     79  65  62 E3        29.96S HX  80
PLATTEVILLE    CLEAR     75  67  77 SE8       30.01S
$$

WIZ056-057-062-063-064-067-068-230400-
SOUTH CENTRAL WISCONSIN

CITY           SKY/WX    TMP DP  RH WIND       PRES   REMARKS
REEDSBURG      CLEAR     76  66  71 CALM      29.99S
BARABOO/DELLS  CLEAR     77  63  61 SW8       30.00S
LONE ROCK      CLEAR     71  67  87 CALM      29.99R
MINERAL POINT  CLEAR     75  66  73 S6        30.02R
MADISON        CLEAR     77  65  66 S5        30.01R
MIDDLETON      CLEAR     73  66  78 CALM      30.02R
WATERTOWN      CLEAR     71  64  80 SE3       30.02R
MONROE         CLEAR     73  63  68 S9        30.02S
JANESVILLE     CLEAR     77  61  57 S6        30.01S
$$

WIZ051-052-058>065-066-070>072-230400-
SOUTHEAST WISCONSIN

CITY           SKY/WX    TMP DP  RH WIND       PRES   REMARKS
MILWAUKEE      CLEAR     78  68  71 S7        30.03R HX  80
WAUKESHA       NOT AVBL
MILWAUKEE/TIMM CLEAR     77  61  57 S9        30.03S
RACINE         CLEAR     77  69  76 S7        30.05R
BURLINGTON     CLEAR     69  67  90 CALM      30.04R
KENOSHA        CLEAR     76  66  71 S6        30.04R
FOND DU LAC    CLEAR     71  66  84 SE6       30.01S
SHEBOYGAN      CLEAR     66  66 100 CALM      30.02S FOG
WEST BEND        N/A     72  66  83 CALM      30.03R
JUNEAU         CLEAR     73  64  71 SE6       30.03S
$$

LSZ147-162-230400-
LAKE SUPERIOR

STATION/POSITION TIME  TEMP    WIND        PRES    WAVE
                       AIR SEA DIR/SP/G            HT/PER
                 (UTC) (F)     (DEG/KT/KT) (MB)    (FT/S)
W MID LAKE BUOY  0250   59 54   80/ 10/ 10 1009.8F   1/ 4
DEVILS ISLAND    0300   62      30/  4/  4 1009.3F
SAXON HARBOR     0240   81     190/ 10/ 18 1008.8F
$$

LMZ867-665-643>646-230400-
LAKE MICHIGAN

STATION/POSITION TIME  TEMP    WIND        PRES    WAVE
                       AIR SEA DIR/SP/G            HT/PER
                 (UTC) (F)     (DEG/KT/KT) (MB)    (FT/S)
S GREEN BAY BUOY 0300   70 67  220/  8/  8 1015.2
N MID LAKE BUOY  0250   69 66  180/ 10/ 10 1016.1R   2/ 4
NORTHPORT PIER   0240   72     150/  8/ 12 1015.2S
KEWAUNEE LAKESHO 0248   66     170/  5/  7 1015.3R
SHEBOYGAN LAKESH 0300   71     170/  5/  6 1016.1S
PORT WASHINGTON  0240   72      CALM  /  2 1017.3R
ATWATER BUOY     0209   71 65  170/  8/ 10 1016.7
MILWAUKEE LAKESH 0250   75     200/  3/  4   N/A
S MID LAKE BUOY  0250   74 70  120/ 10/ 10 1016.9R   0
KENOSHA   LAKESH 0300   77     190/  9/ 12 1016.6
$$

TC  - TEMPERATURE IN CELSIUS
VSB - VISIBILITY IN STATUTE MILES
WCI - WIND CHILL INDEX
HX  - HEAT INDEX





USA.gov is the U.S. government's official web portal to all federal, state and local government web resources and services.